Regional Weather Roundup
Issued by NWS

Home | Current Version | Previous Version | Graphics & Text | Print | Product List | Glossary Off
Versions: 1 2 3 4 5 6 7 8 9 10 11 12 13 14 15 16 17 18 19 20 21 22 23 24 25 26 27 28 29 30 31 32 33 34 35 36 37 38 39 40 41 42 43 44 45 46 47 48 49 50

000
ASUS43 KTOP 282159
RWRKS

WEATHER ROUNDUP FOR KANSAS
NATIONAL WEATHER SERVICE GOODLAND KS
500 PM CDT TUE MAR 28 2017

NOTE:  "FAIR" INDICATES FEW OR NO CLOUDS BELOW 12,000 FEET WITH NO
SIGNIFICANT WEATHER AND/OR OBSTRUCTIONS TO VISIBILITY.

KSZ001>006-013>018-027>032-041>047-282300-
NORTHWEST KANSAS

CITY           SKY/WX    TMP DP  RH WIND       PRES   REMARKS
GOODLAND       RAIN      42  42 100 E12       29.95R FOG
HAYS           LGT RAIN  48  46  93 NE13      29.92F
HILL CITY      RAIN      48  47  96 E9        29.99R FOG
RUSSELL        RAIN      50  46  86 NE12      29.92F
$$

KSZ061>065-074>080-084>089-282300-
SOUTHWEST KANSAS

CITY           SKY/WX    TMP DP  RH WIND       PRES   REMARKS
DODGE CITY     RAIN      47  46  97 NE9       29.93R FOG
ELKHART          N/A     44  35  70 E20         N/A
GARDEN CITY    RAIN      45  44  97 E30G36    29.81F FOG
GREAT BEND     LGT RAIN  49  46  90 E16       29.93R
LIBERAL        CLOUDY    45  39  81 E22G31    29.79F
$$

KSZ066>073-081>083-090>101-282300-
SOUTHEAST KANSAS

CITY           SKY/WX    TMP DP  RH WIND       PRES   REMARKS
CHANUTE        PTSUNNY   62  49  62 E12G24    29.91F
COFFEYVILLE    SUNNY     64  52  64 NE12      29.90S
MEDICINE LODGE   N/A     50  47  89 E20G26    29.81F
NEWTON         CLOUDY    52  47  83 NE8       29.96R
PARSONS        CLOUDY    64  51  62 VRB7      29.92S
WICHITA INTL   CLOUDY    54  47  77 NE17      29.90F
WICHITA JABRA  CLOUDY    53  48  83 E8        29.94R
WINFIELD       CLOUDY    56  48  74 NE14      29.89F
$$

KSZ007>012-019>026-033>040-048>060-102>105-282300-
NORTHEAST KANSAS

CITY           SKY/WX    TMP DP  RH WIND       PRES   REMARKS
CONCORDIA      CLOUDY    54  44  69 E7        30.00R
EMPORIA        CLOUDY    54  50  86 E12       29.95R
LAWRENCE       CLOUDY    55  50  83 NE14      29.99F
MANHATTAN      CLOUDY    55  46  71 E7        29.98R
OLATHE IND     CLOUDY    54  50  86 E12       29.99F
OLATHE EXE     CLOUDY    52  51  97 E13       29.98F
SALINA         CLOUDY    57  45  64 SE10      29.99R
TOPEKA BILLARD CLOUDY    55  50  83 NE12      29.98F
TOPEKA FORBES  CLOUDY    56  50  80 E12       29.97F
$$




USA.gov is the U.S. government's official web portal to all federal, state and local government web resources and services.